Showing default

GOES 16, 41866

Orbit data source: Space-Track

GOES 16, 41866 is a payload satellite owned by NOAA (US) in GEO that was launched on Sat, 19 Nov 2016 UTC via an ATLAS V 541 launch vehicle from the Air Force Eastern Test Range (AFETR). Payload-class satellites include a variety of spacecraft equipped with specific instruments for various scientific and technological missions. These include communications satellites like Starlink; space stations such as the ISS; scientific satellites like the Hubble; Earth observation satellites from companies like Planet Labs, Umbra, and HawkEye 360; GPS; miniature CubeSats for education and research; and military/defense satellites.

Loading next visibility...
Identifier
41866, 2016-071A
Orbit
GEO
Country
Flag of USUS
Related business
Manufacturer
LMCSS
Mission
Operational Civil Weather
Bus & Motor
A2100, LEROS-1C
Mass
5,192 kg wet, 2,857 kg dry
Launch date (UTC)
2016-11-19 (9 years ago)
Launch vehicle
ATLAS V 541
Launch site
Air Force Eastern Test Range (AFETR)
Object type
Payload
Rocket body
Debris
Shape & HBR
Box + 1 Pan + 1 Rod, 6.0 m
Radar Cross Section
37.561 m², Large (>1 m²)

Expand to show TLE details & history
Last TLE update: 11 hours ago

TLE from 11 hours ago
0 GOES 16
1 41866U 16071A   25261.16364593 -.00000111  00000-0  00000-0 0  9997
2 41866   0.1091  83.4982 0002392 132.3897  95.6899  1.00271010 32374
Epoch: 2025-09-18T03:55Z
TLE epoch observation values (Epoch: 2025-09-18T03:55:39.008Z)
Latitude
-0.06975°
Longitude
-104.63505°
Altitude
35,787.363 km
Speed
3.075 km/s
True Right ascension
20h 46m 25s
True Declination
0° 04' 11"
Sunlit
Object was in daylight at epoch
Visualization orbit readout
Latitude
Unknown
Longitude
Unknown
Altitude
Unknown
Speed
Unknown
Apparent Right ascension
Unknown
Apparent Declination
Unknown
Sunlit
N/A
Visualization observer readout
Local Sidereal Time
07:21:36
Azimuth
Unknown
Elevation
Unknown
Doppler factor
Unknown
Orbital elements
Apogee altitude
35,797.969 km
Perigee altitude
35,777.796 km
Semi-major axis
42,166.02 km
Eccentricity
0.00024
Inclination
0.1091°
RAAN
83.4982°
Arg. of periapsis
132.3897°
True anomaly
95.71717°
Mean anomaly
95.6899°
Eccentric anomaly
95.70354°
Mean motion
0.25067 °/min
Orbital period
1,436.16 mins
BSTAR
0
Loading maneuver chart data...
Computing Atmospheric mass density...
Loading historical data...
Loading historical data...
Loading historical data...
Loading historical data...
Loading historical data...
Loading historical data...
Loading historical data...
Other satellites on launch #71 in the year 2016 (2016-11-19 UTC)

Documentation

Showing up to 5 results
|